Time,TemperatureF,DewpointF,PressureIn,WindDirection,WindDirectionDegrees,WindSpeedMPH,WindSpeedGustMPH,Humidity,HourlyPrecipIn,Conditions,Clouds,dailyrainin,SolarRadiationWatts/m^2,SoftwareType,DateUTC
2013-03-04 00:11:00,20.0,16.0,-100.00,SW,232,0.0,0.0,83,0.00,,,0.01,0.000000,,2013-03-04 05:11:00,
2013-03-04 00:22:00,20.0,16.0,-100.00,SW,232,0.0,0.0,83,0.00,,,0.01,0.000000,,2013-03-04 05:22:00,
2013-03-04 00:32:00,20.0,16.0,-100.00,SW,232,0.0,0.0,83,0.00,,,0.01,0.000000,,2013-03-04 05:32:00,
2013-03-04 00:42:00,20.0,16.0,-100.00,SW,232,0.0,0.0,83,0.00,,,0.01,0.000000,,2013-03-04 05:42:00,
2013-03-04 01:11:00,19.0,16.0,-100.00,West,261,0.0,0.0,89,0.00,,,0.01,0.000000,,2013-03-04 06:11:00,
2013-03-04 01:22:00,19.0,16.0,-100.00,West,261,0.0,0.0,89,0.00,,,0.01,0.000000,,2013-03-04 06:22:00,
2013-03-04 01:32:00,19.0,16.0,-100.00,West,261,0.0,0.0,89,0.00,,,0.01,0.000000,,2013-03-04 06:32:00,
2013-03-04 01:42:00,19.0,16.0,-100.00,West,261,0.0,0.0,89,0.00,,,0.01,0.000000,,2013-03-04 06:42:00,
2013-03-04 02:02:00,18.0,16.0,-100.00,SW,228,0.0,0.0,90,0.00,,,0.01,0.000000,,2013-03-04 07:02:00,
2013-03-04 02:11:00,18.0,16.0,-100.00,SW,228,0.0,0.0,90,0.00,,,0.01,0.000000,,2013-03-04 07:11:00,
2013-03-04 02:22:00,18.0,16.0,-100.00,SW,228,0.0,0.0,90,0.00,,,0.01,0.000000,,2013-03-04 07:22:00,
2013-03-04 02:32:00,18.0,16.0,-100.00,SW,228,0.0,0.0,90,0.00,,,0.01,0.000000,,2013-03-04 07:32:00,
2013-03-04 02:42:00,18.0,16.0,-100.00,SW,228,0.0,0.0,90,0.00,,,0.01,0.000000,,2013-03-04 07:42:00,
2013-03-04 03:02:00,17.0,14.0,-100.00,WNW,295,0.0,0.0,89,0.00,,,0.01,0.000000,,2013-03-04 08:02:00,
2013-03-04 03:12:00,17.0,14.0,-100.00,WNW,295,0.0,0.0,89,0.00,,,0.01,0.000000,,2013-03-04 08:12:00,
2013-03-04 03:22:00,17.0,14.0,-100.00,WNW,295,0.0,0.0,89,0.00,,,0.01,0.000000,,2013-03-04 08:22:00,
2013-03-04 03:32:00,17.0,14.0,-100.00,WNW,295,0.0,0.0,89,0.00,,,0.01,0.000000,,2013-03-04 08:32:00,
2013-03-04 03:42:00,17.0,14.0,-100.00,WNW,295,0.0,0.0,89,0.00,,,0.01,0.000000,,2013-03-04 08:42:00,
2013-03-04 04:11:00,17.0,14.0,-100.00,East,90,0.0,0.0,89,0.00,,,0.01,0.000000,,2013-03-04 09:11:00,
2013-03-04 04:22:00,17.0,14.0,-100.00,East,90,0.0,0.0,89,0.00,,,0.01,0.000000,,2013-03-04 09:22:00,
2013-03-04 04:32:00,17.0,14.0,-100.00,East,90,0.0,0.0,89,0.00,,,0.01,0.000000,,2013-03-04 09:32:00,
2013-03-04 04:42:00,17.0,14.0,-100.00,East,90,0.0,0.0,89,0.00,,,0.01,0.000000,,2013-03-04 09:42:00,
2013-03-04 05:12:00,16.0,14.0,-100.00,East,90,0.0,0.0,90,0.00,,,0.01,0.000000,,2013-03-04 10:12:00,
2013-03-04 05:22:00,16.0,14.0,-100.00,East,90,0.0,0.0,90,0.00,,,0.01,0.000000,,2013-03-04 10:22:00,
2013-03-04 05:32:00,16.0,14.0,-100.00,East,90,0.0,0.0,90,0.00,,,0.01,0.000000,,2013-03-04 10:32:00,
2013-03-04 05:42:00,16.0,14.0,-100.00,East,90,0.0,0.0,90,0.00,,,0.01,0.000000,,2013-03-04 10:42:00,
2013-03-04 06:11:00,16.0,13.0,-100.00,East,86,0.0,0.0,89,0.00,,,0.01,0.000000,,2013-03-04 11:11:00,
2013-03-04 06:22:00,16.0,13.0,-100.00,East,86,0.0,0.0,89,0.00,,,0.01,0.000000,,2013-03-04 11:22:00,
2013-03-04 06:32:00,16.0,13.0,-100.00,East,86,0.0,0.0,89,0.00,,,0.01,0.000000,,2013-03-04 11:32:00,
2013-03-04 06:42:00,16.0,13.0,-100.00,East,86,0.0,0.0,89,0.00,,,0.01,0.000000,,2013-03-04 11:42:00,
2013-03-04 07:12:00,17.0,14.0,-100.00,East,91,0.0,0.0,89,0.00,,,0.01,0.000000,,2013-03-04 12:12:00,
2013-03-04 07:22:00,17.0,14.0,-100.00,East,91,0.0,0.0,89,0.00,,,0.01,0.000000,,2013-03-04 12:22:00,
2013-03-04 07:32:00,17.0,14.0,-100.00,East,91,0.0,0.0,89,0.00,,,0.01,0.000000,,2013-03-04 12:32:00,
2013-03-04 07:42:00,17.0,14.0,-100.00,East,91,0.0,0.0,89,0.00,,,0.01,0.000000,,2013-03-04 12:42:00,
2013-03-04 08:11:00,19.0,16.0,-100.00,East,86,0.0,0.0,88,0.00,,,0.01,23.000000,,2013-03-04 13:11:00,
2013-03-04 08:22:00,19.0,16.0,-100.00,East,86,0.0,0.0,88,0.00,,,0.01,23.000000,,2013-03-04 13:22:00,
2013-03-04 08:32:00,19.0,16.0,-100.00,East,86,0.0,0.0,88,0.00,,,0.01,23.000000,,2013-03-04 13:32:00,
2013-03-04 08:42:00,19.0,16.0,-100.00,East,86,0.0,0.0,88,0.00,,,0.01,23.000000,,2013-03-04 13:42:00,
2013-03-04 09:12:00,28.0,20.0,-100.00,SSE,157,4.0,6.0,73,0.00,,,0.01,171.000000,,2013-03-04 14:12:00,
2013-03-04 09:22:00,28.0,20.0,-100.00,SSE,157,4.0,6.0,73,0.00,,,0.01,171.000000,,2013-03-04 14:22:00,
2013-03-04 09:32:00,28.0,20.0,-100.00,SSE,157,4.0,6.0,73,0.00,,,0.01,171.000000,,2013-03-04 14:32:00,
2013-03-04 09:42:00,28.0,20.0,-100.00,SSE,157,4.0,6.0,73,0.00,,,0.01,171.000000,,2013-03-04 14:42:00,
2013-03-04 10:11:00,31.0,18.0,-100.00,South,175,8.0,11.0,59,0.00,,,0.01,411.000000,,2013-03-04 15:11:00,
2013-03-04 10:22:00,31.0,18.0,-100.00,South,175,8.0,11.0,59,0.00,,,0.01,411.000000,,2013-03-04 15:22:00,
2013-03-04 10:32:00,31.0,18.0,-100.00,South,175,8.0,11.0,59,0.00,,,0.01,411.000000,,2013-03-04 15:32:00,
2013-03-04 10:42:00,31.0,18.0,-100.00,South,175,8.0,11.0,59,0.00,,,0.01,411.000000,,2013-03-04 15:42:00,
2013-03-04 11:11:00,33.0,18.0,-100.00,SE,138,8.0,12.0,53,0.00,,,0.01,439.000000,,2013-03-04 16:11:00,
2013-03-04 11:21:00,33.0,18.0,-100.00,SE,138,8.0,12.0,53,0.00,,,0.01,439.000000,,2013-03-04 16:21:00,
2013-03-04 11:32:00,33.0,18.0,-100.00,SE,138,8.0,12.0,53,0.00,,,0.01,439.000000,,2013-03-04 16:32:00,
2013-03-04 11:42:00,33.0,18.0,-100.00,SE,138,8.0,12.0,53,0.00,,,0.01,439.000000,,2013-03-04 16:42:00,
2013-03-04 12:11:00,36.0,17.0,-100.00,SE,138,9.0,13.0,46,0.00,,,0.00,587.000000,,2013-03-04 17:11:00,
2013-03-04 12:22:00,36.0,17.0,-100.00,SE,138,9.0,13.0,46,0.00,,,0.00,587.000000,,2013-03-04 17:22:00,
2013-03-04 12:32:00,36.0,17.0,-100.00,SE,138,9.0,13.0,46,0.00,,,0.00,587.000000,,2013-03-04 17:32:00,
2013-03-04 12:42:00,36.0,17.0,-100.00,SE,138,9.0,13.0,46,0.00,,,0.00,587.000000,,2013-03-04 17:42:00,
2013-03-04 13:11:00,39.0,17.0,-100.00,SE,139,7.0,13.0,41,0.00,,,0.00,752.000000,,2013-03-04 18:11:00,
2013-03-04 13:22:00,39.0,17.0,-100.00,SE,139,7.0,13.0,41,0.00,,,0.00,752.000000,,2013-03-04 18:22:00,
2013-03-04 13:32:00,39.0,17.0,-100.00,SE,139,7.0,13.0,41,0.00,,,0.00,752.000000,,2013-03-04 18:32:00,
2013-03-04 13:42:00,39.0,17.0,-100.00,SE,139,7.0,13.0,41,0.00,,,0.00,752.000000,,2013-03-04 18:42:00,
2013-03-04 14:02:00,40.0,16.0,-100.00,SSE,152,6.0,12.0,37,0.00,,,0.00,532.000000,,2013-03-04 19:02:00,
2013-03-04 14:12:00,40.0,16.0,-100.00,SSE,152,6.0,12.0,37,0.00,,,0.00,532.000000,,2013-03-04 19:12:00,
2013-03-04 14:22:00,40.0,16.0,-100.00,SSE,152,6.0,12.0,37,0.00,,,0.00,532.000000,,2013-03-04 19:22:00,
2013-03-04 14:32:00,40.0,16.0,-100.00,SSE,152,6.0,12.0,37,0.00,,,0.00,532.000000,,2013-03-04 19:32:00,
2013-03-04 14:42:00,40.0,16.0,-100.00,SSE,152,6.0,12.0,37,0.00,,,0.00,532.000000,,2013-03-04 19:42:00,
2013-03-04 15:12:00,40.0,16.0,-100.00,SE,136,6.0,11.0,38,0.00,,,0.00,272.000000,,2013-03-04 20:12:00,
2013-03-04 15:22:00,40.0,16.0,-100.00,SE,136,6.0,11.0,38,0.00,,,0.00,272.000000,,2013-03-04 20:22:00,
2013-03-04 15:32:00,40.0,16.0,-100.00,SE,136,6.0,11.0,38,0.00,,,0.00,272.000000,,2013-03-04 20:32:00,
2013-03-04 15:42:00,40.0,16.0,-100.00,SE,136,6.0,11.0,38,0.00,,,0.00,272.000000,,2013-03-04 20:42:00,
2013-03-04 16:12:00,41.0,20.0,-100.00,ESE,122,7.0,12.0,43,0.00,,,0.00,245.000000,,2013-03-04 21:12:00,
2013-03-04 16:22:00,41.0,20.0,-100.00,ESE,122,7.0,12.0,43,0.00,,,0.00,245.000000,,2013-03-04 21:22:00,
2013-03-04 16:32:00,41.0,20.0,-100.00,ESE,122,7.0,12.0,43,0.00,,,0.00,245.000000,,2013-03-04 21:32:00,
2013-03-04 16:42:00,41.0,20.0,-100.00,ESE,122,7.0,12.0,43,0.00,,,0.00,245.000000,,2013-03-04 21:42:00,
2013-03-04 17:12:00,41.0,21.0,-100.00,ESE,115,7.0,12.0,45,0.00,,,0.00,123.000000,,2013-03-04 22:12:00,
2013-03-04 17:22:00,41.0,21.0,-100.00,ESE,115,7.0,12.0,45,0.00,,,0.00,123.000000,,2013-03-04 22:22:00,
2013-03-04 17:32:00,41.0,21.0,-100.00,ESE,115,7.0,12.0,45,0.00,,,0.00,123.000000,,2013-03-04 22:32:00,
2013-03-04 17:42:00,41.0,21.0,-100.00,ESE,115,7.0,12.0,45,0.00,,,0.00,123.000000,,2013-03-04 22:42:00,
2013-03-04 18:11:00,40.0,21.0,-100.00,ESE,117,7.0,12.0,46,0.00,,,0.00,64.000000,,2013-03-04 23:11:00,
2013-03-04 18:22:00,40.0,21.0,-100.00,ESE,117,7.0,12.0,46,0.00,,,0.00,64.000000,,2013-03-04 23:22:00,
2013-03-04 18:32:00,40.0,21.0,-100.00,ESE,117,7.0,12.0,46,0.00,,,0.00,64.000000,,2013-03-04 23:32:00,
2013-03-04 18:42:00,40.0,21.0,-100.00,ESE,117,7.0,12.0,46,0.00,,,0.00,64.000000,,2013-03-04 23:42:00,
2013-03-04 20:12:00,38.0,22.0,-100.00,ESE,107,8.0,17.0,53,-99.99,,,0.00,0.000000,,2013-03-05 01:12:00,
2013-03-04 20:22:00,38.0,22.0,-100.00,ESE,107,8.0,17.0,53,-99.99,,,0.00,0.000000,,2013-03-05 01:22:00,
2013-03-04 20:33:00,38.0,22.0,-100.00,ESE,107,8.0,17.0,53,-99.99,,,0.00,0.000000,,2013-03-05 01:33:00,
2013-03-04 20:42:00,38.0,22.0,-100.00,ESE,107,8.0,17.0,53,-99.99,,,0.00,0.000000,,2013-03-05 01:42:00,
2013-03-04 21:12:00,38.0,24.0,-100.00,ESE,110,6.0,12.0,56,0.00,,,0.00,0.000000,,2013-03-05 02:12:00,
2013-03-04 21:22:00,38.0,24.0,-100.00,ESE,110,6.0,12.0,56,0.00,,,0.00,0.000000,,2013-03-05 02:22:00,
2013-03-04 21:32:00,38.0,24.0,-100.00,ESE,110,6.0,12.0,56,0.00,,,0.00,0.000000,,2013-03-05 02:32:00,
2013-03-04 21:42:00,38.0,24.0,-100.00,ESE,110,6.0,12.0,56,0.00,,,0.00,0.000000,,2013-03-05 02:42:00,
2013-03-04 22:12:00,38.0,24.0,-100.00,East,95,6.0,10.0,57,0.00,,,0.00,0.000000,,2013-03-05 03:12:00,
2013-03-04 22:22:00,38.0,24.0,-100.00,East,95,6.0,10.0,57,0.00,,,0.00,0.000000,,2013-03-05 03:22:00,
2013-03-04 22:32:00,38.0,24.0,-100.00,East,95,6.0,10.0,57,0.00,,,0.00,0.000000,,2013-03-05 03:32:00,
2013-03-04 22:42:00,38.0,24.0,-100.00,East,95,6.0,10.0,57,0.00,,,0.00,0.000000,,2013-03-05 03:42:00,
2013-03-04 23:12:00,38.0,25.0,-100.00,East,94,3.0,9.0,58,0.00,,,0.00,0.000000,,2013-03-05 04:12:00,
2013-03-04 23:22:00,38.0,25.0,-100.00,East,94,3.0,9.0,58,0.00,,,0.00,0.000000,,2013-03-05 04:22:00,
2013-03-04 23:32:00,38.0,25.0,-100.00,East,94,3.0,9.0,58,0.00,,,0.00,0.000000,,2013-03-05 04:32:00,
2013-03-04 23:42:00,38.0,25.0,-100.00,East,94,3.0,9.0,58,0.00,,,0.00,0.000000,,2013-03-05 04:42:00,